Location: ???? ???
(30.5005°N, 60.5936°E)
Time: 12:39:23
(UTC+00:00)

Cosmos 1151 Rocket - Pass Details

Date: 07 June 2020
Orbit: 593 x 615 km, 82.5° (Epoch: 06 July)

Event Time Altitude Azimuth Distance (km) Brightness Sun altitude
Rises 00:01:45 0° 342° (NNW) 2,886 6.7 -10.7°
Reaches altitude 10° 00:04:08 10° 332° (NNW) 1,977 5.7 -10.2°
Maximum altitude 00:08:03 32° 269° (W) 1,049 3.8 -9.5°
Drops below altitude 10° 00:11:56 10° 206° (SSW) 1,962 5.1 -8.8°
Enters shadow 00:13:01 - 200° (SSW) 2,365 5.6 -8.6°
